Regional Weather Roundup
Issued by NWS

Home | Current Version | Previous Version | Graphics & Text | Print | Product List | Glossary On
Versions: 1 2 3 4 5 6 7 8 9 10 11 12 13 14 15 16 17 18 19 20 21 22 23 24 25 26 27 28 29 30 31 32 33 34 35 36 37 38 39 40 41 42 43 44 45 46 47 48 49 50
000
ASUS43 KMPX 200001
RWRMN
WEATHER ROUNDUP FOR MINNESOTA
NATIONAL WEATHER SERVICE TWIN CITIES/CHANHASSEN MN
600 PM CST FRI JAN 19 2018


NOTE: "FAIR" INDICATES FEW OR NO CLOUDS BELOW 12,000 FEET WITH NO
SIGNIFICANT WEATHER AND/OR OBSTRUCTIONS TO VISIBILITY. N/A MEANS
CURRENT SKY AND/OR WEATHER CONDITIONS ARE NOT AVAILABLE.

MNZ060>063-068>070-200100-
   Twin Cities Metro

CITY           SKY/WX    TMP DP  RH WIND       PRES   REMARKS
TWIN CITIES    MOCLDY    40  32  73 W6        29.58R
6HR MIN TEMP:  38; 6HR MAX TEMP:  44;

ST PAUL        FAIR      33  29  85 CALM      29.59R
CRYSTAL        FAIR      39  29  67 SW3       29.56R
BLAINE         MOCLDY    41  32  70 SW3       29.56R
LAKEVILLE      FAIR      34  30  86 W5        29.57R WCI  30
EDEN PRAIRIE   FAIR      40  32  73 W5        29.56R
6HR MIN TEMP:  38; 6HR MAX TEMP:  44;

SOUTH ST PAUL  FAIR      38  30  74 CALM      29.58R
LAKE ELMO      FAIR      36  32  87 CALM      29.57R
$$
MNZ001>005-007-008-013>017-022>024-027-028-200100-
   Northwest Minnesota

CITY           SKY/WX    TMP DP  RH WIND       PRES   REMARKS
BEMIDJI        FAIR      36  30  79 W10       29.50R
HALLOCK        FAIR      30  28  93 CALM      29.52S
ROSEAU         FAIR      36  30  80 W8        29.50R
WARROAD        CLOUDY    36  32  87 W12       29.49R
CROOKSTON      FAIR      34  30  86 W10       29.55S WCI  26
FOSSTON        FAIR      34  28  80 W6        29.54R WCI  29
DETROIT LAKES  FAIR      36  32  87 NW10      29.58R
MOORHEAD       FAIR      34  30  86 W7        29.60R WCI  28
PARK RAPIDS    FAIR      35  29  78 W9        29.52R WCI  28
MAHNOMEN       FAIR      33  29  87 W9        29.55R WCI  25
$$
MNZ006-009>011-018-025>026-200100-
   North Central Minnesota

CITY           SKY/WX    TMP DP  RH WIND       PRES   REMARKS
BAUDETTE       FAIR      36  30  79 W12       29.45R
FLAG ISLAND    CLOUDY    36  30  80 W21G26    29.45R
INTL FALLS     FAIR      37  29  72 W13G21    29.42R
6HR MIN TEMP:  37; 6HR MAX TEMP:  43; 6HR PCP: TRACE;

WASKISH        FAIR      36  30  80 W8        29.49R
BIG FORK       FAIR      39  30  70 W6        29.46R
LONGVILLE      FAIR      39  28  65 W5        29.50R
GRAND RAPIDS   FAIR      41  29  62 W9        29.48R
CRANE LAKE     FAIR      37  30  75 W3        29.42R
ORR            FAIR      37  28  70 W8        29.40R
COOK           CLOUDY    37  28  70 W9G20     29.44R
WALKER         FAIR      37  29  73 W12       29.51R
$$
MNZ012-019>021-037-200100-
   Northeast Minnesota

CITY           SKY/WX    TMP DP  RH WIND       PRES   REMARKS
DULUTH         FAIR      37  28  70 W13       29.44R
6HR MIN TEMP:  36; 6HR MAX TEMP:  40;

ELY            FAIR      36  28  75 W8        29.40R
HIBBING        FAIR      40  28  62 W10       29.44R
EVELETH        FAIR      37  28  70 W6        29.44R
DULUTH HARBOR  FAIR      39  30  70 SW12      29.46R
TWO HARBORS    FAIR      39  30  70 SW7       29.40R
SILVER BAY     FAIR      37  30  75 SW3       29.38R
GRAND MARAIS     N/A     37  34  89 W10       29.36R
G MARAIS ARPRT FAIR      36  27  69 SW6       29.33S
$$
MNZ029>031-032-039>041-046>048-054>057-064-200100-
   West Central Minnesota

CITY           SKY/WX    TMP DP  RH WIND       PRES   REMARKS
FERGUS FALLS   FAIR      32  30  93 W8        29.60R WCI  25
WHEATON        CLOUDY    37  30  75 NW6       29.64R
MORRIS         PTCLDY    36  30  80 NW8       29.60R
ALEXANDRIA     FAIR      36  30  79 NW9       29.58R
ELBOW LAKE     FAIR      33  31  93 CALM      29.60R
WADENA         FAIR      34  28  80 W7        29.56R WCI  28
GLENWOOD       FAIR      36  30  80 W9        29.58R
APPLETON       MOCLDY    37  30  75 W3        29.61R
BENSON         MOCLDY    36  30  80 N6        29.62R
ORTONVILLE     MOCLDY    41  30  65 NW7G16    29.61R
MADISON        PTCLDY    45  32  61 NW5       29.61R
WILLMAR        FAIR      37  30  75 W6        29.61R
$$
MNZ033>034-036-042>043-049>051-058-059-200100-
   Central Minnesota

CITY           SKY/WX    TMP DP  RH WIND       PRES   REMARKS
ST CLOUD       FAIR      37  29  72 W6        29.55R
6HR MIN TEMP:  36; 6HR MAX TEMP:  46;

SAUK CENTRE      N/A     36  29  77 W3        29.57R
PAYNESVILLE    FAIR      37  32  82 W3        29.58R
AITKIN         FAIR      39  27  60 SW6       29.49R
PINE RIVER     FAIR      39  28  65 W5        29.55R
BRAINERD       FAIR      42  28  57 W9        29.53R
STAPLES        FAIR      34  28  80 W9        29.55R WCI  26
LONG PRAIRIE   FAIR      37  30  75 W5        29.56R
LITTLE FALLS   FAIR      41  23  48 W6        29.55R
LITCHFIELD     FAIR      41  34  75 W3        29.58R
BUFFALO        FAIR      37  31  77 CALM      29.57R
MAPLE LAKE     FAIR      39  32  76 MISG      29.56R
HUTCHINSON     FAIR      39  33  80 W8        29.59R
$$
MNZ037-044-045-052-053-200100-
   East Central Minnesota

CITY           SKY/WX    TMP DP  RH WIND       PRES   REMARKS
PRINCETON      FAIR      37  30  75 CALM      29.55R
MORA           FAIR      36  28  75 SW3       29.54R
CAMBRIDGE      FAIR      37  27  65 S5        29.55R
RUSH CITY      FAIR      36  28  73 S5        29.53R
MOOSE LAKE     FAIR      36  28  75 SW5       29.48R
HINCKLEY       FAIR      34  28  80 S6        29.51R WCI  29
CLOQUET        FAIR      37  27  65 SW8       29.47R
MCGREGOR       FAIR      37  30  75 SW5       29.50R
$$
MNZ071>073-080-081-089-090-097-098-200100-
   Southwest Minnesota

CITY           SKY/WX    TMP DP  RH WIND       PRES   REMARKS
MONTEVIDEO     PTCLDY    41  30  65 N5        29.61R
GRANITE FALLS  CLOUDY    37  32  82 W8        29.62R
CANBY          MOCLDY    42  30  63 SW3       29.63R
MARSHALL       CLOUDY    37  29  72 W8        29.64R
REDWOOD FALLS  CLOUDY    40  33  76 W8        29.61R
OLIVIA         CLOUDY    39  32  75 NW8       29.60R
PIPESTONE      CLOUDY    34  30  86 W5        29.63R WCI  30
WINDOM         CLOUDY    36  21  55 W5        29.62R
WORTHINGTON    CLOUDY    36  32  85 W9        29.63R
JACKSON        CLOUDY    37  32  81 W9        29.61S
TRACY          CLOUDY    41  32  71 W5        29.63R
SLAYTON        CLOUDY    37  33  84 W5        29.63R
$$
MNZ065>067-074>077-082>085-091>093-200100-
   South Central Minnesota

CITY           SKY/WX    TMP DP  RH WIND       PRES   REMARKS
MANKATO        FAIR      41  33  73 SW8       29.59R
NEW ULM        CLOUDY    36  30  80 W7        29.61R
ST JAMES       CLOUDY    37  32  81 W9        29.61R
FAIRMONT       CLOUDY    40  33  76 W12       29.61R
FARIBAULT      FAIR      36  30  80 S3        29.58R
OWATONNA       FAIR      36  32  87 SW7       29.58R
WASECA         FAIR      36  32  87 SW8       29.59R
ALBERT LEA     FAIR      39  30  70 SW6       29.60R
$$
MNZ078>079-086>088-094>096-200100-
   Southeast Minnesota

CITY           SKY/WX    TMP DP  RH WIND       PRES   REMARKS
ROCHESTER      FAIR      37  31  78 SW14      29.58R
6HR MIN TEMP:  34; 6HR MAX TEMP:  38;

RED WING       FAIR      34  27  75 CALM      29.57R
STANTON        FAIR      35  31  85 S6        29.56R WCI  30
DODGE CENTER   FAIR      36  30  80 SW8       29.58R
WINONA         FAIR      41  30  65 W6        29.57R
AUSTIN         FAIR      37  30  75 SW9       29.58
PRESTON        FAIR      37  30  74 SW13      29.59R
$$
ABBREVIATIONS USED IN REMARKS
   TC - TEMPERATURES IN CELSIUS
  WCI - WIND CHILL INDEX
   HX - HEAT INDEX
  VSB - VISIBILITY
$$



USA.gov is the U.S. government's official web portal to all federal, state and local government web resources and services.